Time,TemperatureF,DewpointF,PressureIn,WindDirection,WindDirectionDegrees,WindSpeedMPH,WindSpeedGustMPH,Humidity,HourlyPrecipIn,Conditions,Clouds,dailyrainin,SoftwareType,DateUTC
2013-08-25 00:00:00,59.2,54.0,29.88,East,87,5.0,8.0,83,0.00,RA,RA,0.00,WeatherDisplay:10.37,2013-08-24 23:00:00,
2013-08-25 00:10:00,59.4,54.2,29.88,NNE,33,7.0,13.0,83,0.00,CLR,CLR,0.00,WeatherDisplay:10.37,2013-08-24 23:10:00,
2013-08-25 00:20:00,59.4,54.2,29.88,NNW,343,6.0,11.0,83,0.00,CLR,CLR,0.00,WeatherDisplay:10.37,2013-08-24 23:20:00,
2013-08-25 00:30:00,59.2,54.3,29.89,NW,322,9.0,13.0,84,0.00,CLR,CLR,0.00,WeatherDisplay:10.37,2013-08-24 23:30:00,
2013-08-25 00:40:00,58.6,54.5,29.89,NW,324,6.0,13.0,86,0.00,CLR,CLR,0.00,WeatherDisplay:10.37,2013-08-24 23:40:00,
2013-08-25 00:50:00,58.8,54.6,29.89,NW,304,5.0,11.0,86,0.00,CLR,CLR,0.00,WeatherDisplay:10.37,2013-08-24 23:50:00,
2013-08-25 01:00:00,59.0,54.5,29.89,North,349,6.0,10.0,85,0.00,CLR,CLR,0.00,WeatherDisplay:10.37,2013-08-25 00:00:00,
2013-08-25 01:10:00,59.2,54.3,29.90,NNW,346,6.0,11.0,84,0.00,CLR,CLR,0.00,WeatherDisplay:10.37,2013-08-25 00:10:00,
2013-08-25 01:20:00,59.0,54.5,29.90,North,350,6.0,10.0,85,0.00,CLR,CLR,0.00,WeatherDisplay:10.37,2013-08-25 00:20:00,
2013-08-25 01:30:00,59.2,54.7,29.90,NW,324,3.0,9.0,85,0.00,CLR,CLR,0.00,WeatherDisplay:10.37,2013-08-25 00:30:00,
2013-08-25 01:40:00,59.2,54.3,29.90,NNE,16,3.0,8.0,84,0.00,CLR,CLR,0.00,WeatherDisplay:10.37,2013-08-25 00:40:00,
2013-08-25 01:50:00,59.4,54.2,29.90,NE,44,3.0,12.0,83,0.00,CLR,CLR,0.00,WeatherDisplay:10.37,2013-08-25 00:50:00,
2013-08-25 02:00:00,59.7,54.5,29.90,NNW,341,3.0,9.0,83,0.00,CLR,CLR,0.00,WeatherDisplay:10.37,2013-08-25 01:00:00,
2013-08-25 02:10:00,59.5,54.4,29.91,North,6,2.0,8.0,83,0.00,CLR,CLR,0.00,WeatherDisplay:10.37,2013-08-25 01:10:00,
2013-08-25 02:20:00,59.4,53.9,29.90,NNE,29,3.0,13.0,82,0.00,CLR,CLR,0.00,WeatherDisplay:10.37,2013-08-25 01:20:00,
2013-08-25 02:30:00,59.4,53.9,29.91,NE,56,5.0,11.0,82,0.00,CLR,CLR,0.00,WeatherDisplay:10.37,2013-08-25 01:30:00,
2013-08-25 02:40:00,59.7,54.2,29.92,North,5,5.0,11.0,82,0.00,CLR,CLR,0.00,WeatherDisplay:10.37,2013-08-25 01:40:00,
2013-08-25 02:50:00,59.4,53.9,29.92,NE,51,5.0,9.0,82,0.00,CLR,CLR,0.00,WeatherDisplay:10.37,2013-08-25 01:50:00,
2013-08-25 03:00:00,59.2,54.0,29.92,NW,305,5.0,9.0,83,0.00,CLR,CLR,0.00,WeatherDisplay:10.37,2013-08-25 02:00:00,
2013-08-25 03:10:00,59.2,54.0,29.92,NNE,13,6.0,10.0,83,0.00,CLR,CLR,0.00,WeatherDisplay:10.37,2013-08-25 02:10:00,
2013-08-25 03:20:00,59.0,53.8,29.93,WNW,303,3.0,9.0,83,0.00,CLR,CLR,0.00,WeatherDisplay:10.37,2013-08-25 02:20:00,
2013-08-25 03:30:00,58.6,53.8,29.93,North,2,3.0,7.0,84,0.00,CLR,CLR,0.00,WeatherDisplay:10.37,2013-08-25 02:30:00,
2013-08-25 03:40:00,58.5,53.6,29.93,North,351,3.0,9.0,84,0.00,CLR,CLR,0.00,WeatherDisplay:10.37,2013-08-25 02:40:00,
2013-08-25 03:50:00,58.6,53.8,29.93,NNE,21,3.0,8.0,84,0.00,CLR,CLR,0.00,WeatherDisplay:10.37,2013-08-25 02:50:00,
2013-08-25 04:00:00,58.8,53.7,29.93,NNE,25,2.0,8.0,83,0.00,CLR,CLR,0.00,WeatherDisplay:10.37,2013-08-25 03:00:00,
2013-08-25 04:10:00,58.8,53.7,29.94,North,356,5.0,8.0,83,0.00,CLR,CLR,0.00,WeatherDisplay:10.37,2013-08-25 03:10:00,
2013-08-25 04:20:00,58.8,53.7,29.94,East,83,3.0,8.0,83,0.00,CLR,CLR,0.00,WeatherDisplay:10.37,2013-08-25 03:20:00,
2013-08-25 04:30:00,58.8,53.7,29.94,NNW,339,3.0,13.0,83,0.00,CLR,CLR,0.00,WeatherDisplay:10.37,2013-08-25 03:30:00,
2013-08-25 04:40:00,58.8,53.7,29.94,NE,37,3.0,8.0,83,0.00,CLR,CLR,0.00,WeatherDisplay:10.37,2013-08-25 03:40:00,
2013-08-25 04:50:00,58.6,53.5,29.95,NNE,15,3.0,9.0,83,0.00,CLR,CLR,0.00,WeatherDisplay:10.37,2013-08-25 03:50:00,
2013-08-25 05:00:00,58.5,53.3,29.94,NE,49,2.0,8.0,83,0.00,CLR,CLR,0.00,WeatherDisplay:10.37,2013-08-25 04:00:00,
2013-08-25 05:10:00,58.1,53.3,29.95,NE,36,2.0,7.0,84,0.00,CLR,CLR,0.00,WeatherDisplay:10.37,2013-08-25 04:10:00,
2013-08-25 05:20:00,58.1,53.3,29.95,North,7,2.0,8.0,84,0.00,CLR,CLR,0.00,WeatherDisplay:10.37,2013-08-25 04:20:00,
2013-08-25 05:30:00,57.9,53.1,29.95,NNE,19,2.0,6.0,84,0.00,CLR,CLR,0.00,WeatherDisplay:10.37,2013-08-25 04:30:00,
2013-08-25 05:40:00,57.7,52.9,29.95,NNE,32,1.0,6.0,84,0.00,CLR,CLR,0.00,WeatherDisplay:10.37,2013-08-25 04:40:00,
2013-08-25 05:50:00,57.4,52.6,29.96,NNE,24,2.0,6.0,84,0.00,CLR,CLR,0.00,WeatherDisplay:10.37,2013-08-25 04:50:00,
2013-08-25 06:00:00,57.2,52.4,29.96,NNE,16,1.0,5.0,84,0.00,CLR,CLR,0.00,WeatherDisplay:10.37,2013-08-25 05:00:00,
2013-08-25 06:10:00,56.7,52.2,29.97,ENE,67,1.0,4.0,85,0.00,CLR,CLR,0.00,WeatherDisplay:10.37,2013-08-25 05:10:00,
2013-08-25 06:20:00,56.8,52.7,29.97,NE,40,1.0,6.0,86,0.00,CLR,CLR,0.00,WeatherDisplay:10.37,2013-08-25 05:20:00,
2013-08-25 06:30:00,57.0,52.9,29.97,NNE,12,1.0,5.0,86,0.00,CLR,CLR,0.00,WeatherDisplay:10.37,2013-08-25 05:30:00,
2013-08-25 06:40:00,57.2,52.7,29.98,NNE,27,2.0,6.0,85,0.00,CLR,CLR,0.00,WeatherDisplay:10.37,2013-08-25 05:40:00,
2013-08-25 06:50:00,57.6,53.1,29.98,NE,36,2.0,8.0,85,0.00,CLR,CLR,0.00,WeatherDisplay:10.37,2013-08-25 05:50:00,
2013-08-25 07:00:00,57.6,53.1,29.98,NE,47,3.0,6.0,85,0.00,CLR,CLR,0.00,WeatherDisplay:10.37,2013-08-25 06:00:00,
2013-08-25 07:10:00,57.7,52.9,29.98,NE,45,3.0,8.0,84,0.00,CLR,CLR,0.00,WeatherDisplay:10.37,2013-08-25 06:10:00,
2013-08-25 07:20:00,57.7,52.9,29.99,NE,49,3.0,8.0,84,0.00,CLR,CLR,0.00,WeatherDisplay:10.37,2013-08-25 06:20:00,
2013-08-25 07:30:00,57.9,53.1,29.99,ESE,119,3.0,8.0,84,0.00,CLR,CLR,0.00,WeatherDisplay:10.37,2013-08-25 06:30:00,
2013-08-25 07:40:00,58.1,53.3,29.99,North,358,3.0,9.0,84,0.00,CLR,CLR,0.00,WeatherDisplay:10.37,2013-08-25 06:40:00,
2013-08-25 07:50:00,58.6,53.8,30.00,NNE,21,3.0,8.0,84,0.00,CLR,CLR,0.00,WeatherDisplay:10.37,2013-08-25 06:50:00,
2013-08-25 08:00:00,59.9,54.4,30.00,NE,44,3.0,9.0,82,0.00,CLR,CLR,0.00,WeatherDisplay:10.37,2013-08-25 07:00:00,
2013-08-25 08:10:00,61.2,54.2,30.00,North,10,2.0,9.0,78,0.00,CLR,CLR,0.00,WeatherDisplay:10.37,2013-08-25 07:10:00,
2013-08-25 08:20:00,60.7,53.1,30.00,NE,39,3.0,10.0,76,0.00,CLR,CLR,0.00,WeatherDisplay:10.37,2013-08-25 07:20:00,
2013-08-25 08:30:00,60.4,53.5,30.00,NNW,332,3.0,10.0,78,0.00,CLR,CLR,0.00,WeatherDisplay:10.37,2013-08-25 07:30:00,
2013-08-25 08:40:00,60.3,53.4,30.00,NNE,28,3.0,9.0,78,0.00,CLR,CLR,0.00,WeatherDisplay:10.37,2013-08-25 07:40:00,
2013-08-25 08:50:00,61.9,54.2,30.00,North,10,3.0,8.0,76,0.00,CLR,CLR,0.00,WeatherDisplay:10.37,2013-08-25 07:50:00,
2013-08-25 09:00:00,63.0,53.9,30.01,NNE,27,5.0,8.0,72,0.00,CLR,CLR,0.00,WeatherDisplay:10.37,2013-08-25 08:00:00,
2013-08-25 09:10:00,62.1,53.3,30.01,NNE,25,5.0,8.0,73,0.00,CLR,CLR,0.00,WeatherDisplay:10.37,2013-08-25 08:10:00,
2013-08-25 09:20:00,63.1,54.3,30.02,North,8,3.0,8.0,73,0.00,CLR,CLR,0.00,WeatherDisplay:10.37,2013-08-25 08:20:00,
2013-08-25 09:30:00,63.4,54.2,30.02,WNW,291,6.0,8.0,72,0.00,CLR,CLR,0.00,WeatherDisplay:10.37,2013-08-25 08:30:00,
2013-08-25 09:40:00,62.1,53.3,30.02,NNE,21,5.0,11.0,73,0.00,CLR,CLR,0.00,WeatherDisplay:10.37,2013-08-25 08:40:00,
2013-08-25 09:50:00,62.6,53.8,30.03,NNW,334,5.0,10.0,73,0.00,CLR,CLR,0.00,WeatherDisplay:10.37,2013-08-25 08:50:00,
2013-08-25 10:00:00,65.2,54.8,30.03,NNE,12,3.0,13.0,69,0.00,CLR,CLR,0.00,WeatherDisplay:10.37,2013-08-25 09:00:00,
2013-08-25 10:10:00,66.3,53.8,30.03,NNE,28,6.0,11.0,64,0.00,CLR,CLR,0.00,WeatherDisplay:10.37,2013-08-25 09:10:00,
2013-08-25 10:20:00,64.0,53.7,30.03,NNE,15,5.0,10.0,69,0.00,CLR,CLR,0.00,WeatherDisplay:10.37,2013-08-25 09:20:00,
2013-08-25 10:30:00,63.1,53.6,30.03,NNW,338,5.0,9.0,71,0.00,CLR,CLR,0.00,WeatherDisplay:10.37,2013-08-25 09:30:00,
2013-08-25 10:40:00,63.7,54.1,30.03,NNE,20,5.0,10.0,71,0.00,CLR,CLR,0.00,WeatherDisplay:10.37,2013-08-25 09:40:00,
2013-08-25 10:50:00,65.2,54.4,30.03,North,0,6.0,11.0,68,0.00,CLR,CLR,0.00,WeatherDisplay:10.37,2013-08-25 09:50:00,
2013-08-25 11:00:00,63.5,53.1,30.04,NE,42,6.0,11.0,69,0.00,CLR,CLR,0.00,WeatherDisplay:10.37,2013-08-25 10:00:00,
2013-08-25 11:10:00,63.6,54.0,30.04,North,2,6.0,11.0,71,0.00,CLR,CLR,0.00,WeatherDisplay:10.37,2013-08-25 10:10:00,
2013-08-25 11:20:00,65.0,53.8,30.04,NE,48,6.0,12.0,67,0.00,CLR,CLR,0.00,WeatherDisplay:10.37,2013-08-25 10:20:00,
2013-08-25 11:30:00,64.6,53.0,30.04,NNW,332,6.0,12.0,66,0.00,CLR,CLR,0.00,WeatherDisplay:10.37,2013-08-25 10:30:00,
2013-08-25 11:40:00,65.6,53.6,30.04,NNE,16,2.0,8.0,65,0.00,CLR,CLR,0.00,WeatherDisplay:10.37,2013-08-25 10:40:00,
2013-08-25 11:50:00,64.8,53.1,30.04,North,4,3.0,10.0,66,0.00,CLR,CLR,0.00,WeatherDisplay:10.37,2013-08-25 10:50:00,
2013-08-25 12:00:00,64.0,52.9,30.05,NE,39,6.0,12.0,67,0.00,CLR,CLR,0.00,WeatherDisplay:10.37,2013-08-25 11:00:00,
2013-08-25 12:10:00,64.8,52.7,30.04,NNW,341,5.0,13.0,65,0.00,CLR,CLR,0.00,WeatherDisplay:10.37,2013-08-25 11:10:00,
2013-08-25 12:20:00,64.8,52.7,30.04,NNW,336,6.0,10.0,65,0.00,CLR,CLR,0.00,WeatherDisplay:10.37,2013-08-25 11:20:00,
2013-08-25 12:30:00,65.8,52.9,30.04,NNW,338,3.0,14.0,63,0.00,CLR,CLR,0.00,WeatherDisplay:10.37,2013-08-25 11:30:00,
2013-08-25 12:40:00,65.9,53.4,30.05,North,355,5.0,11.0,64,0.00,CLR,CLR,0.00,WeatherDisplay:10.37,2013-08-25 11:40:00,
2013-08-25 12:50:00,65.5,53.4,30.05,NNW,342,6.0,12.0,65,0.00,CLR,CLR,0.00,WeatherDisplay:10.37,2013-08-25 11:50:00,
2013-08-25 13:00:00,66.0,53.9,30.05,North,350,6.0,13.0,65,0.00,CLR,CLR,0.00,WeatherDisplay:10.37,2013-08-25 12:00:00,
2013-08-25 13:10:00,65.5,53.9,30.04,NNE,15,6.0,11.0,66,0.00,CLR,CLR,0.00,WeatherDisplay:10.37,2013-08-25 12:10:00,
2013-08-25 13:20:00,65.3,53.6,30.05,North,11,5.0,12.0,66,0.00,CLR,CLR,0.00,WeatherDisplay:10.37,2013-08-25 12:20:00,
2013-08-25 13:30:00,65.5,53.4,30.05,NNE,32,5.0,11.0,65,0.00,CLR,CLR,0.00,WeatherDisplay:10.37,2013-08-25 12:30:00,
2013-08-25 13:40:00,66.0,54.3,30.05,NNE,24,5.0,9.0,66,0.00,CLR,CLR,0.00,WeatherDisplay:10.37,2013-08-25 12:40:00,
2013-08-25 13:50:00,69.1,53.7,30.05,North,359,2.0,8.0,58,0.00,CLR,CLR,0.00,WeatherDisplay:10.37,2013-08-25 12:50:00,
2013-08-25 14:00:00,66.9,53.4,30.05,NNE,15,6.0,11.0,62,0.00,CLR,CLR,0.00,WeatherDisplay:10.37,2013-08-25 13:00:00,
2013-08-25 14:10:00,65.7,53.6,30.06,North,358,3.0,11.0,65,0.00,CLR,CLR,0.00,WeatherDisplay:10.37,2013-08-25 13:10:00,
2013-08-25 14:20:00,65.8,54.2,30.06,NNE,19,5.0,9.0,66,0.00,CLR,CLR,0.00,WeatherDisplay:10.37,2013-08-25 13:20:00,
2013-08-25 14:30:00,65.3,53.6,30.06,ENE,72,3.0,11.0,66,0.00,CLR,CLR,0.00,WeatherDisplay:10.37,2013-08-25 13:30:00,
2013-08-25 14:40:00,65.3,53.6,30.06,NNE,32,5.0,8.0,66,0.00,CLR,CLR,0.00,WeatherDisplay:10.37,2013-08-25 13:40:00,
2013-08-25 14:50:00,65.8,54.1,30.06,North,11,5.0,8.0,66,0.00,CLR,CLR,0.00,WeatherDisplay:10.37,2013-08-25 13:50:00,
2013-08-25 15:00:00,66.0,53.9,30.06,NNE,27,5.0,9.0,65,0.00,CLR,CLR,0.00,WeatherDisplay:10.37,2013-08-25 14:00:00,
2013-08-25 15:10:00,65.2,53.1,30.06,WNW,303,5.0,11.0,65,0.00,CLR,CLR,0.00,WeatherDisplay:10.37,2013-08-25 14:10:00,
2013-08-25 15:20:00,64.8,53.2,30.06,NNW,338,3.0,9.0,66,0.00,CLR,CLR,0.00,WeatherDisplay:10.37,2013-08-25 14:20:00,
2013-08-25 15:30:00,65.6,53.5,30.06,NNE,20,3.0,9.0,65,0.00,CLR,CLR,0.00,WeatherDisplay:10.37,2013-08-25 14:30:00,
2013-08-25 15:40:00,65.3,53.2,30.06,NNE,22,2.0,8.0,65,0.00,CLR,CLR,0.00,WeatherDisplay:10.37,2013-08-25 14:40:00,
2013-08-25 15:50:00,65.4,53.4,30.07,NNE,28,3.0,9.0,65,0.00,CLR,CLR,0.00,WeatherDisplay:10.37,2013-08-25 14:50:00,
2013-08-25 16:00:00,65.5,53.4,30.06,NNE,29,2.0,8.0,65,0.00,CLR,CLR,0.00,WeatherDisplay:10.37,2013-08-25 15:00:00,
2013-08-25 16:10:00,66.0,53.9,30.06,East,84,3.0,8.0,65,0.00,CLR,CLR,0.00,WeatherDisplay:10.37,2013-08-25 15:10:00,
2013-08-25 16:20:00,66.0,53.9,30.07,NE,48,2.0,8.0,65,0.00,CLR,CLR,0.00,WeatherDisplay:10.37,2013-08-25 15:20:00,
2013-08-25 16:30:00,66.0,53.9,30.06,NW,322,3.0,8.0,65,0.00,CLR,CLR,0.00,WeatherDisplay:10.37,2013-08-25 15:30:00,
2013-08-25 16:40:00,65.7,54.0,30.06,NNE,29,3.0,9.0,66,0.00,CLR,CLR,0.00,WeatherDisplay:10.37,2013-08-25 15:40:00,
2013-08-25 16:50:00,65.5,53.8,30.06,NNE,24,2.0,8.0,66,0.00,CLR,CLR,0.00,WeatherDisplay:10.37,2013-08-25 15:50:00,
2013-08-25 17:00:00,65.1,53.5,30.07,NNE,24,3.0,7.0,66,0.00,CLR,CLR,0.00,WeatherDisplay:10.37,2013-08-25 16:00:00,
2013-08-25 17:10:00,65.1,53.9,30.07,NNE,18,2.0,9.0,67,0.00,CLR,CLR,0.00,WeatherDisplay:10.37,2013-08-25 16:10:00,
2013-08-25 17:20:00,64.8,53.5,30.07,ENE,67,2.0,8.0,67,0.00,CLR,CLR,0.00,WeatherDisplay:10.37,2013-08-25 16:20:00,
2013-08-25 17:30:00,64.8,53.5,30.07,North,351,2.0,7.0,67,0.00,CLR,CLR,0.00,WeatherDisplay:10.37,2013-08-25 16:30:00,
2013-08-25 17:40:00,64.6,53.4,30.07,NNW,336,3.0,7.0,67,0.00,CLR,CLR,0.00,WeatherDisplay:10.37,2013-08-25 16:40:00,
2013-08-25 17:50:00,64.4,53.6,30.07,NW,325,6.0,9.0,68,0.00,CLR,CLR,0.00,WeatherDisplay:10.37,2013-08-25 16:50:00,
2013-08-25 18:00:00,64.3,54.3,30.07,NNE,29,6.0,12.0,70,0.00,CLR,CLR,0.00,WeatherDisplay:10.37,2013-08-25 17:00:00,
2013-08-25 18:10:00,64.5,53.7,30.08,NNE,32,5.0,10.0,68,0.00,CLR,CLR,0.00,WeatherDisplay:10.37,2013-08-25 17:10:00,
2013-08-25 18:20:00,64.2,53.8,30.08,NNE,18,3.0,9.0,69,0.00,CLR,CLR,0.00,WeatherDisplay:10.37,2013-08-25 17:20:00,
2013-08-25 18:30:00,64.2,54.6,30.08,WNW,285,2.0,11.0,71,0.00,CLR,CLR,0.00,WeatherDisplay:10.37,2013-08-25 17:30:00,
2013-08-25 18:40:00,64.2,54.6,30.08,NNE,13,6.0,13.0,71,0.00,CLR,CLR,0.00,WeatherDisplay:10.37,2013-08-25 17:40:00,
2013-08-25 18:50:00,63.7,54.1,30.08,NNE,21,3.0,13.0,71,0.00,CLR,CLR,0.00,WeatherDisplay:10.37,2013-08-25 17:50:00,
2013-08-25 19:00:00,63.9,54.6,30.08,NNE,22,5.0,9.0,72,0.00,CLR,CLR,0.00,WeatherDisplay:10.37,2013-08-25 18:00:00,
2013-08-25 19:10:00,63.3,54.1,30.08,North,356,2.0,10.0,72,0.00,CLR,CLR,0.00,WeatherDisplay:10.37,2013-08-25 18:10:00,
2013-08-25 19:20:00,63.1,54.0,30.08,North,2,3.0,7.0,72,0.00,CLR,CLR,0.00,WeatherDisplay:10.37,2013-08-25 18:20:00,
2013-08-25 19:30:00,62.8,54.0,30.08,NNE,32,3.0,10.0,73,0.00,CLR,CLR,0.00,WeatherDisplay:10.37,2013-08-25 18:30:00,
2013-08-25 19:40:00,62.4,54.4,30.08,NE,48,2.0,7.0,75,0.00,CLR,CLR,0.00,WeatherDisplay:10.37,2013-08-25 18:40:00,
2013-08-25 19:50:00,62.4,54.3,30.08,North,358,3.0,8.0,75,0.00,CLR,CLR,0.00,WeatherDisplay:10.37,2013-08-25 18:50:00,
2013-08-25 20:00:00,62.1,54.4,30.09,NNE,23,1.0,9.0,76,0.00,CLR,CLR,0.00,WeatherDisplay:10.37,2013-08-25 19:00:00,
2013-08-25 20:10:00,61.7,54.1,30.08,ENE,67,2.0,9.0,76,0.00,CLR,CLR,0.00,WeatherDisplay:10.37,2013-08-25 19:10:00,
2013-08-25 20:20:00,61.7,54.1,30.08,NNE,17,3.0,8.0,76,0.00,CLR,CLR,0.00,WeatherDisplay:10.37,2013-08-25 19:20:00,
2013-08-25 20:30:00,61.5,53.9,30.08,North,1,2.0,8.0,76,0.00,CLR,CLR,0.00,WeatherDisplay:10.37,2013-08-25 19:30:00,
2013-08-25 20:40:00,61.5,53.9,30.08,North,10,2.0,6.0,76,0.00,CLR,CLR,0.00,WeatherDisplay:10.37,2013-08-25 19:40:00,
2013-08-25 20:50:00,61.0,53.7,30.08,NNW,330,1.0,7.0,77,0.00,CLR,CLR,0.00,WeatherDisplay:10.37,2013-08-25 19:50:00,
2013-08-25 21:00:00,60.6,54.1,30.08,North,357,2.0,8.0,79,0.00,CLR,CLR,0.00,WeatherDisplay:10.37,2013-08-25 20:00:00,
2013-08-25 21:10:00,60.4,54.2,30.09,NNE,15,5.0,7.0,80,0.00,CLR,CLR,0.00,WeatherDisplay:10.37,2013-08-25 20:10:00,
2013-08-25 21:20:00,60.3,54.1,30.09,NE,49,2.0,7.0,80,0.00,CLR,CLR,0.00,WeatherDisplay:10.37,2013-08-25 20:20:00,
2013-08-25 21:30:00,60.3,54.1,30.09,North,7,1.0,6.0,80,0.00,CLR,CLR,0.00,WeatherDisplay:10.37,2013-08-25 20:30:00,
2013-08-25 21:40:00,60.1,53.9,30.09,NE,40,1.0,5.0,80,0.00,CLR,CLR,0.00,WeatherDisplay:10.37,2013-08-25 20:40:00,
2013-08-25 21:50:00,60.1,53.9,30.09,ENE,71,1.0,5.0,80,0.00,CLR,CLR,0.00,WeatherDisplay:10.37,2013-08-25 20:50:00,
2013-08-25 22:00:00,60.1,53.9,30.10,NNW,348,0.0,6.0,80,0.00,CLR,CLR,0.00,WeatherDisplay:10.37,2013-08-25 21:00:00,
2013-08-25 22:10:00,60.1,54.2,30.10,NNE,22,1.0,4.0,81,0.00,CLR,CLR,0.00,WeatherDisplay:10.37,2013-08-25 21:10:00,
2013-08-25 22:20:00,60.1,54.2,30.10,NNE,13,5.0,9.0,81,0.00,CLR,CLR,0.00,WeatherDisplay:10.37,2013-08-25 21:20:00,
2013-08-25 22:30:00,60.4,54.2,30.10,North,3,3.0,11.0,80,0.00,CLR,CLR,0.00,WeatherDisplay:10.37,2013-08-25 21:30:00,
2013-08-25 22:40:00,60.4,53.9,30.10,NNE,19,3.0,13.0,79,0.00,CLR,CLR,0.00,WeatherDisplay:10.37,2013-08-25 21:40:00,
2013-08-25 22:50:00,60.4,53.9,30.10,NNE,23,2.0,8.0,79,0.00,CLR,CLR,0.00,WeatherDisplay:10.37,2013-08-25 21:50:00,
2013-08-25 23:00:00,60.3,53.7,30.10,NNE,13,2.0,8.0,79,0.00,CLR,CLR,0.00,WeatherDisplay:10.37,2013-08-25 22:00:00,
2013-08-25 23:10:00,59.9,53.7,30.10,NE,54,2.0,7.0,80,0.00,CLR,CLR,0.00,WeatherDisplay:10.37,2013-08-25 22:10:00,
2013-08-25 23:20:00,59.7,53.5,30.10,NNE,18,5.0,8.0,80,0.00,CLR,CLR,0.00,WeatherDisplay:10.37,2013-08-25 22:20:00,
2013-08-25 23:30:00,59.5,53.4,30.10,NNE,24,1.0,8.0,80,0.00,CLR,CLR,0.00,WeatherDisplay:10.37,2013-08-25 22:30:00,
2013-08-25 23:40:00,59.2,53.4,30.11,NE,44,2.0,8.0,81,0.00,CLR,CLR,0.00,WeatherDisplay:10.37,2013-08-25 22:40:00,
2013-08-25 23:50:00,59.2,53.4,30.10,NNE,27,1.0,6.0,81,0.00,CLR,CLR,0.00,WeatherDisplay:10.37,2013-08-25 22:50:00,